This is the latest recevied weather packets stored in our database for station/object LU3MCV-13. If no packets are shown the sender has not sent any weather packets the latest 10 day(s).
| Time | Temp. | Humidity | Pressure | Rain* | Wind** | Luminosity | Snow |
|---|---|---|---|---|---|---|---|
| 1778092990 | 23.89° C | 8% | 924.3 hPa | - | - | - | - |
| 1778092090 | 23.89° C | 8% | 924 hPa | - | - | - | - |
| 1778091190 | 23.89° C | 8% | 923.1 hPa | - | - | - | - |
| 1778090290 | 23.89° C | 12% | 923.8 hPa | - | - | - | - |
| 1778089391 | 23.89° C | 20% | 923.9 hPa | - | - | - | - |
| 1778088490 | 23.89° C | 20% | 924 hPa | - | - | - | - |
| 1778087590 | 23.89° C | 20% | 923.6 hPa | - | - | - | - |
| 1778086690 | 23.89° C | 19% | 923.5 hPa | - | - | - | - |
| 1778085790 | 23.89° C | 20% | 923.4 hPa | - | - | - | - |
| 1778084890 | 23.89° C | 20% | 923.6 hPa | - | - | - | - |
| 1778083990 | 22.78° C | 22% | 923.7 hPa | - | - | - | - |
| 1778083089 | 22.78° C | 23% | 923.7 hPa | - | - | - | - |
| 1778082190 | 22.22° C | 24% | 924 hPa | - | - | - | - |
| 1778081290 | 22.22° C | 25% | 924.5 hPa | - | - | - | - |
| 1778080390 | 21.11° C | 25% | 925.1 hPa | - | - | - | - |
| 1778079490 | 21.11° C | 25% | 925.3 hPa | - | - | - | - |
| 1778078589 | 20° C | 25% | 925.6 hPa | - | - | - | - |
| 1778077690 | 20° C | 26% | 925.7 hPa | - | - | - | - |
| 1778076790 | 18.89° C | 28% | 925.8 hPa | - | - | - | - |
| 1778075890 | 18.89° C | 30% | 926.1 hPa | - | - | - | - |
| 1778074990 | 17.78° C | 31% | 926 hPa | - | - | - | - |
| 1778074090 | 17.78° C | 32% | 926 hPa | - | - | - | - |
| 1778073190 | 17.78° C | 32% | 926.3 hPa | - | - | - | - |
| 1778072289 | 17.22° C | 33% | 926 hPa | - | - | - | - |
| 1778071390 | 17.22° C | 34% | 926.3 hPa | - | - | - | - |
* Rain since midnight (hover to see other rain measurements)
** Current wind speed in m/s (hover to see current wind gust speed)